• Em Portugal
  • Lista de países
  • Para 7 dias
  • Temperatura da água
  • Mapas de satélite
  • Mapa do tempo
  • Widgets de tempo
  • user-avatar
    Iniciar Sessão

    Previsão horária em Semnan

    Hoje, 26 Setembro, Terça-feira

    Tempo Temperatura Precipitação Vento Pressão Humidade
    00:00 +26°C° 0 mm 3 m/s 681 mmHg 39%
    01:00 +26°C° 0 mm 3 m/s 681 mmHg 43%
    02:00 +25°C° 0 mm 3 m/s 681 mmHg 45%
    03:00 +25°C° 0 mm 3 m/s 681 mmHg 47%
    04:00 +24°C° 0 mm 3 m/s 681 mmHg 48%
    05:00 +24°C° 0 mm 3 m/s 681 mmHg 49%
    06:00 +24°C° 0 mm 3 m/s 681 mmHg 50%
    07:00 +22°C° 0 mm 3 m/s 681 mmHg 50%
    08:00 +25°C° 0 mm 2 m/s 682 mmHg 44%
    09:00 +27°C° 0 mm 2 m/s 682 mmHg 37%
    10:00 +28°C° 0 mm 2 m/s 683 mmHg 31%
    11:00 +29°C° 0 mm 2 m/s 683 mmHg 29%
    12:00 +30°C° 0 mm 2 m/s 683 mmHg 27%
    13:00 +30°C° 0 mm 3 m/s 683 mmHg 25%
    14:00 +31°C° 0,1 mm 3 m/s 682 mmHg 25%
    15:00 +31°C° 0,1 mm 3 m/s 682 mmHg 24%
    16:00 +31°C° 0,1 mm 3 m/s 682 mmHg 24%
    17:00 +30°C° 0,1 mm 2 m/s 682 mmHg 26%
    18:00 +30°C° 0,1 mm 2 m/s 681 mmHg 27%
    19:00 +29°C° 0,1 mm 1 m/s 681 mmHg 29%
    20:00 +28°C° 0 mm 2 m/s 682 mmHg 31%
    21:00 +28°C° 0 mm 2 m/s 682 mmHg 33%
    22:00 +27°C° 0 mm 2 m/s 682 mmHg 36%
    23:00 +26°C° 0 mm 2 m/s 682 mmHg 38%

    Amanhã, 27 Setembro, Quarta-feira

    Tempo Temperatura Precipitação Vento Pressão Humidade
    00:00 +26°C° 0 mm 2 m/s 682 mmHg 41%
    01:00 +25°C° 0 mm 2 m/s 682 mmHg 44%
    02:00 +25°C° 0 mm 2 m/s 682 mmHg 46%
    03:00 +24°C° 0 mm 2 m/s 681 mmHg 47%
    04:00 +24°C° 0 mm 1 m/s 681 mmHg 49%
    05:00 +23°C° 0 mm 1 m/s 681 mmHg 50%
    06:00 +23°C° 0 mm 1 m/s 681 mmHg 50%
    07:00 +23°C° 0 mm 1 m/s 681 mmHg 50%
    08:00 +24°C° 0 mm 1 m/s 682 mmHg 45%
    09:00 +26°C° 0 mm 2 m/s 682 mmHg 40%
    10:00 +27°C° 0 mm 2 m/s 683 mmHg 35%
    11:00 +28°C° 0 mm 2 m/s 682 mmHg 32%
    12:00 +29°C° 0 mm 3 m/s 682 mmHg 30%
    13:00 +30°C° 0 mm 3 m/s 682 mmHg 27%
    14:00 +30°C° 0 mm 3 m/s 682 mmHg 25%
    15:00 +31°C° 0 mm 3 m/s 681 mmHg 24%
    16:00 +31°C° 0 mm 3 m/s 681 mmHg 23%
    17:00 +30°C° 0 mm 2 m/s 681 mmHg 24%
    18:00 +30°C° 0 mm 1 m/s 681 mmHg 26%
    19:00 +29°C° 0 mm 1 m/s 680 mmHg 27%
    20:00 +28°C° 0 mm 1 m/s 680 mmHg 29%
    21:00 +28°C° 0 mm 2 m/s 680 mmHg 30%
    22:00 +27°C° 0 mm 2 m/s 680 mmHg 32%
    23:00 +27°C° 0 mm 2 m/s 680 mmHg 34%

    Depois de amanhã, 28 Setembro, Quinta-feira

    Tempo Temperatura Precipitação Vento Pressão Humidade
    00:00 +26°C° 0 mm 2 m/s 680 mmHg 36%
    01:00 +26°C° 0 mm 2 m/s 680 mmHg 37%
    02:00 +25°C° 0 mm 1 m/s 680 mmHg 39%
    03:00 +25°C° 0 mm 1 m/s 679 mmHg 40%
    04:00 +24°C° 0 mm 1 m/s 679 mmHg 41%
    05:00 +24°C° 0 mm 1 m/s 679 mmHg 41%
    06:00 +24°C° 0 mm 1 m/s 679 mmHg 42%
    07:00 +24°C° 0 mm 1 m/s 680 mmHg 42%
    08:00 +25°C° 0 mm 1 m/s 680 mmHg 37%
    09:00 +27°C° 0 mm 2 m/s 681 mmHg 32%
    10:00 +28°C° 0 mm 2 m/s 681 mmHg 28%
    11:00 +29°C° 0 mm 2 m/s 681 mmHg 25%
    12:00 +30°C° 0 mm 2 m/s 681 mmHg 23%
    13:00 +31°C° 0 mm 2 m/s 681 mmHg 21%
    14:00 +31°C° 0 mm 2 m/s 681 mmHg 20%
    15:00 +32°C° 0 mm 2 m/s 681 mmHg 20%
    16:00 +32°C° 0 mm 2 m/s 681 mmHg 19%
    17:00 +31°C° 0 mm 2 m/s 681 mmHg 22%
    18:00 +30°C° 0 mm 2 m/s 680 mmHg 25%
    19:00 +29°C° 0 mm 2 m/s 680 mmHg 28%
    20:00 +28°C° 0 mm 3 m/s 681 mmHg 33%
    21:00 +27°C° 0 mm 4 m/s 681 mmHg 37%
    22:00 +26°C° 0 mm 5 m/s 681 mmHg 42%
    23:00 +25°C° 0 mm 4 m/s 681 mmHg 43%

    29 Setembro, Sexta-feira

    Tempo Temperatura Precipitação Vento Pressão Humidade
    00:00 +25°C° 0 mm 4 m/s 681 mmHg 45%
    01:00 +23°C° 0 mm 4 m/s 681 mmHg 46%
    02:00 +23°C° 0 mm 4 m/s 681 mmHg 47%
    03:00 +22°C° 0 mm 3 m/s 681 mmHg 47%
    04:00 +22°C° 0 mm 3 m/s 681 mmHg 48%
    05:00 +22°C° 0 mm 3 m/s 681 mmHg 48%
    06:00 +21°C° 0 mm 3 m/s 682 mmHg 47%
    07:00 +21°C° 0 mm 2 m/s 682 mmHg 47%
    08:00 +24°C° 0 mm 2 m/s 682 mmHg 43%
    09:00 +25°C° 0 mm 1 m/s 683 mmHg 38%
    10:00 +26°C° 0 mm 1 m/s 683 mmHg 34%
    11:00 +27°C° 0 mm 1 m/s 683 mmHg 32%
    12:00 +28°C° 0 mm 2 m/s 683 mmHg 30%
    13:00 +29°C° 0 mm 2 m/s 683 mmHg 27%
    14:00 +29°C° 0 mm 2 m/s 683 mmHg 27%
    15:00 +29°C° 0 mm 2 m/s 682 mmHg 27%
    16:00 +29°C° 0 mm 2 m/s 682 mmHg 27%
    17:00 +29°C° 0 mm 2 m/s 682 mmHg 29%
    18:00 +28°C° 0 mm 2 m/s 682 mmHg 31%
    19:00 +27°C° 0 mm 2 m/s 683 mmHg 33%
    20:00 +27°C° 0 mm 2 m/s 683 mmHg 35%
    21:00 +26°C° 0 mm 2 m/s 683 mmHg 37%
    22:00 +25°C° 0 mm 3 m/s 683 mmHg 40%
    23:00 +24°C° 0 mm 3 m/s 683 mmHg 42%

    30 Setembro, Sábado

    Tempo Temperatura Precipitação Vento Pressão Humidade
    00:00 +24°C° 0 mm 3 m/s 683 mmHg 44%
    01:00 +22°C° 0 mm 3 m/s 683 mmHg 46%
    02:00 +23°C° 0 mm 2 m/s 682 mmHg 48%
    03:00 +21°C° 0 mm 2 m/s 682 mmHg 49%
    04:00 +22°C° 0 mm 1 m/s 682 mmHg 50%
    05:00 +22°C° 0 mm 1 m/s 682 mmHg 50%
    06:00 +22°C° 0 mm 1 m/s 682 mmHg 49%
    07:00 +22°C° 0 mm 1 m/s 683 mmHg 49%
    08:00 +23°C° 0 mm 1 m/s 683 mmHg 44%
    09:00 +24°C° 0 mm 1 m/s 683 mmHg 39%
    10:00 +26°C° 0 mm 2 m/s 684 mmHg 34%
    11:00 +27°C° 0 mm 2 m/s 683 mmHg 32%
    12:00 +28°C° 0 mm 2 m/s 683 mmHg 29%
    13:00 +29°C° 0 mm 3 m/s 683 mmHg 26%
    14:00 +29°C° 0 mm 3 m/s 682 mmHg 25%
    15:00 +29°C° 0 mm 3 m/s 682 mmHg 24%
    16:00 +30°C° 0 mm 3 m/s 682 mmHg 23%
    17:00 +29°C° 0 mm 2 m/s 681 mmHg 24%
    18:00 +28°C° 0 mm 2 m/s 681 mmHg 25%
    19:00 +27°C° 0 mm 2 m/s 681 mmHg 27%
    20:00 +27°C° 0 mm 2 m/s 681 mmHg 28%
    21:00 +26°C° 0 mm 1 m/s 681 mmHg 29%
    22:00 +26°C° 0 mm 1 m/s 681 mmHg 30%
    23:00 +25°C° 0 mm 1 m/s 681 mmHg 30%

    1 Outubro, Domingo

    Tempo Temperatura Precipitação Vento Pressão Humidade
    00:00 +25°C° 0 mm 1 m/s 681 mmHg 31%
    01:00 +24°C° 0 mm 1 m/s 681 mmHg 32%
    02:00 +24°C° 0 mm 1 m/s 680 mmHg 32%
    03:00 +23°C° 0 mm 1 m/s 680 mmHg 32%
    04:00 +23°C° 0 mm 1 m/s 680 mmHg 33%
    05:00 +23°C° 0 mm 1 m/s 680 mmHg 32%
    06:00 +23°C° 0 mm 1 m/s 680 mmHg 32%
    07:00 +23°C° 0 mm 1 m/s 681 mmHg 32%
    08:00 +25°C° 0 mm 1 m/s 681 mmHg 28%
    09:00 +27°C° 0 mm 2 m/s 682 mmHg 25%
    10:00 +29°C° 0 mm 2 m/s 682 mmHg 21%
    11:00 +30°C° 0 mm 2 m/s 682 mmHg 20%
    12:00 +31°C° 0 mm 3 m/s 682 mmHg 18%
    13:00 +33°C° 0 mm 3 m/s 682 mmHg 16%
    14:00 +34°C° 0 mm 4 m/s 681 mmHg 15%
    15:00 +34°C° 0 mm 5 m/s 681 mmHg 15%
    16:00 +34°C° 0 mm 5 m/s 681 mmHg 14%
    17:00 +33°C° 0 mm 4 m/s 680 mmHg 16%
    18:00 +31°C° 0 mm 3 m/s 680 mmHg 18%
    19:00 +30°C° 0 mm 2 m/s 680 mmHg 20%
    20:00 +29°C° 0 mm 1 m/s 680 mmHg 22%
    21:00 +28°C° 0 mm 1 m/s 680 mmHg 23%
    22:00 +27°C° 0 mm 1 m/s 680 mmHg 25%
    23:00 +27°C° 0 mm 1 m/s 680 mmHg 26%
    Mostrar mais